Change the Weather History Date:

Wednesday, October 30, 2013

  Actual Average Record
Temperature  
Mean Temperature 31 °F 38 °F  
Max Temperature 46 °F 51 °F 75 °F (1944)
Min Temperature 16 °F 25 °F -15 °F (1984)
Degree Days  
Heating Degree Days 34 27  
Month to date heating degree days 640 615  
Since 1 July heating degree days 808 972  
Cooling Degree Days 0 0  
Month to date cooling degree days 0 0  
Year to date cooling degree days 445 386  
Moisture  
Dew Point 22 °F    
Average Humidity 79    
Maximum Humidity 100    
Minimum Humidity 57    
Precipitation  
Precipitation 0.00 in 0.02 in 0.43 in (1943)
Month to date precipitation 0.30 0.57  
Year to date precipitation 17.45 10.36  
Snow  
Snow 0.00 in 0.10 in 1.70 in (1919)
Month to date snowfall 1.0 1.9  
Since 1 July snowfall 1.0 2.2  
Since 1 September snowfall 1.0 2.2  
Snow Depth T in    
Sea Level Pressure  
Sea Level Pressure 29.83 in    
Wind  
Wind Speed 10 mph (WSW)    
Max Wind Speed 21 mph    
Max Gust Speed 25 mph    
Visibility 6 miles    
Events Fog    
T = Trace of Precipitation, MM = Missing Value Source: NWS Daily Summary

Daily Weather History Graph

Daily Weather History Graph

Search for Another Location

Airport or City:

Trip Planner

Search our weather history database for the weather conditions in past years. The results will help you decide how hot, cold, wet, or windy it might be!

Date:

Astronomy

Oct. 30, 2013 Rise Set
Actual Time 8:02 AM MDT 6:02 PM MDT
Civil Twilight 7:29 AM MDT 6:34 PM MDT
Nautical Twilight 6:52 AM MDT 7:11 PM MDT
Astronomical Twilight 6:16 AM MDT 7:48 PM MDT
Moon 3:36 AM MDT (10/30) 4:05 PM MDT (10/30)
Length of Visible Light 11h 04m
Length of Day
9h 59m
Waning Crescent, 16% of the Moon is Illuminated
Oct 30
Waning Crescent
Nov 3
New
Nov 9
First Quarter
Nov 17
Full
Nov 25
Last Quarter

Hourly Weather History & Observations

Time (MDT) Temp. Windchill Dew Point Humidity Pressure Visibility Wind Dir Wind Speed Gust Speed Precip Events Conditions
12:53 AM 21.9 °F - 19.0 °F 89% 29.91 in 10.0 mi Calm Calm - N/A   Clear
1:53 AM 21.9 °F - 19.0 °F 89% 29.91 in 10.0 mi Calm Calm - N/A   Clear
2:53 AM 18.0 °F 12.7 °F 16.0 °F 92% 29.90 in 10.0 mi South 3.5 mph - N/A   Clear
3:53 AM 17.1 °F 10.0 °F 15.1 °F 92% 29.90 in 10.0 mi WSW 4.6 mph - N/A   Clear
4:53 AM 16.0 °F 10.4 °F 12.9 °F 88% 29.89 in 10.0 mi WSW 3.5 mph - N/A   Clear
5:16 AM 15.8 °F 7.2 °F 12.2 °F 86% 29.79 in 10.0 mi WSW 5.8 mph - N/A   Scattered Clouds
5:25 AM 15.8 °F 7.2 °F 14.0 °F 93% 29.79 in 5.0 mi WSW 5.8 mph - N/A   Mostly Cloudy
5:31 AM 17.6 °F 9.3 °F 15.8 °F 93% 29.79 in 1.8 mi West 5.8 mph - N/A   Mostly Cloudy
5:36 AM 17.6 °F 12.3 °F 15.8 °F 93% 29.79 in 0.8 mi West 3.5 mph - N/A   Mist
5:53 AM 18.0 °F 12.7 °F 17.1 °F 96% 29.90 in 1.0 mi West 3.5 mph - N/A   Mist
6:00 AM 19.4 °F - 17.6 °F 93% 29.79 in 0.5 mi Calm Calm - N/A Fog Light Freezing Fog
6:07 AM 19.4 °F - 17.6 °F 93% 29.79 in 0.2 mi Calm Calm - N/A Fog Light Freezing Fog
6:20 AM 19.4 °F 14.3 °F 17.6 °F 93% 29.79 in 0.8 mi SW 3.5 mph - N/A   Mist
6:53 AM 19.9 °F 14.9 °F 18.0 °F 92% 29.89 in 0.5 mi WSW 3.5 mph - N/A Fog Light Freezing Fog
7:11 AM 19.4 °F 14.3 °F 17.6 °F 93% 29.79 in 1.5 mi WSW 3.5 mph - N/A   Overcast
7:17 AM 19.4 °F 14.3 °F 17.6 °F 93% 29.78 in 3.0 mi WSW 3.5 mph - N/A   Overcast
7:24 AM 19.4 °F 14.3 °F 17.6 °F 93% 29.78 in 1.5 mi WSW 3.5 mph - N/A   Overcast
7:29 AM 19.4 °F 14.3 °F 17.6 °F 93% 29.79 in 0.8 mi WSW 3.5 mph - N/A   Overcast
7:53 AM 19.9 °F 14.9 °F 18.0 °F 92% 29.89 in 0.5 mi SW 3.5 mph - N/A Fog Light Freezing Fog
8:06 AM 19.4 °F - 17.6 °F 93% 29.79 in 0.2 mi Calm Calm - N/A Fog Light Freezing Fog
8:48 AM 19.4 °F 12.8 °F 17.6 °F 93% 29.78 in 1.2 mi SW 4.6 mph - N/A   Mostly Cloudy
8:50 AM 19.4 °F 11.5 °F 17.6 °F 93% 29.78 in 3.0 mi SW 5.8 mph - N/A   Mostly Cloudy
8:53 AM 19.9 °F 10.1 °F 18.0 °F 92% 29.89 in 7.0 mi SW 8.1 mph - N/A   Mostly Cloudy
9:01 AM 19.4 °F 9.5 °F 17.6 °F 93% 29.78 in 10.0 mi SW 8.1 mph - N/A   Scattered Clouds
9:53 AM 24.1 °F 11.5 °F 21.0 °F 88% 29.88 in 10.0 mi SW 15.0 mph - N/A   Clear
10:53 AM 30.0 °F 19.1 °F 27.0 °F 88% 29.86 in 10.0 mi SW 15.0 mph - N/A   Clear
11:53 AM 37.0 °F 27.0 °F 27.0 °F 67% 29.85 in 10.0 mi WSW 18.4 mph - N/A   Clear
12:53 PM 39.0 °F 30.3 °F 28.0 °F 65% 29.84 in 10.0 mi WSW 16.1 mph - N/A   Clear
1:53 PM 42.1 °F 33.6 °F 28.0 °F 58% 29.82 in 10.0 mi West 18.4 mph - N/A   Clear
2:53 PM 43.0 °F 36.0 °F 28.9 °F 58% 29.81 in 10.0 mi WSW 13.8 mph - N/A   Clear
3:53 PM 45.0 °F 38.9 °F 30.9 °F 58% 29.81 in 10.0 mi West 12.7 mph - N/A   Clear
4:53 PM 45.0 °F 38.2 °F 32.0 °F 60% 29.82 in 10.0 mi WNW 15.0 mph - N/A   Clear
5:53 PM 41.0 °F 35.2 °F 32.0 °F 70% 29.83 in 10.0 mi West 9.2 mph - N/A   Clear
6:53 PM 37.9 °F 31.5 °F 30.0 °F 73% 29.85 in 10.0 mi WSW 9.2 mph - N/A   Clear
7:53 PM 35.1 °F 27.9 °F 28.9 °F 78% 29.86 in 10.0 mi WSW 9.2 mph - N/A   Clear
8:53 PM 34.0 °F 26.0 °F 28.9 °F 82% 29.86 in 10.0 mi SW 10.4 mph - N/A   Clear
9:53 PM 36.0 °F 28.0 °F 28.9 °F 76% 29.85 in 10.0 mi SW 11.5 mph - N/A   Mostly Cloudy
10:53 PM 35.1 °F 27.4 °F 28.0 °F 76% 29.83 in 10.0 mi SW 10.4 mph - N/A   Mostly Cloudy
11:53 PM 37.0 °F 28.5 °F 28.9 °F 73% 29.81 in 10.0 mi SW 13.8 mph - N/A   Overcast